Regional Weather Roundup
Issued by NWS

Home | Current Version | Previous Version | Graphics & Text | Print | Product List | Glossary On
Versions: 1 2 3 4 5 6 7 8 9 10 11 12 13 14 15 16 17 18 19 20 21 22 23 24 25 26 27
000
ASUS45 KSLC 260910
RWRUT

UTAH REGIONAL WEATHER ROUNDUP
NATIONAL WEATHER SERVICE SALT LAKE CITY UT
300 AM MDT TUE JUL 26 2016

UTZ001>011-023>025-261000-

NORTHERN UTAH

CITY           SKY/WX    TMP DP  RH WIND       PRES   REMARKS
BRIGHAM CITY     N/A     71  43  36 CALM      30.04F
HILL AFB       MOCLDY    74  36  24 E15       30.07S
LOGAN          MOCLDY    61  48  62 CALM      30.07F
OGDEN          MOCLDY    73  37  27 S7        30.03F
PROVO AIRPORT  MOCLDY    73  43  33 E8        30.07R
SALT LAKE CITY PTCLDY    80  41  24 SE10      30.01F
VERNAL         CLOUDY    62  41  46 W6        30.17R
WENDOVER       CLEAR     75  30  19 NW8       30.04S
HEBER CITY     PTCLDY    55  45  67 CALM      30.17S

$$

UTZ012>022-026-027-261000-

SOUTHERN/CENTRAL UTAH

CITY           SKY/WX    TMP DP  RH WIND       PRES   REMARKS
BLANDING       MOCLDY    74  44  34 NE9       30.31R
BRYCE CANYON   MOCLDY    52  45  77 CALM      30.38R
CEDAR CITY     MOCLDY    72  43  35 N3        30.18R
DELTA          CLEAR     72  34  25 S9        30.08R
MILFORD        CLEAR     66  48  52 S10       30.11R
MOAB/CYNLANDS  CLOUDY    80  41  24 SE7       30.08R
PRICE          PTCLDY    64  32  30 N5        30.22R
ST GEORGE      MOSUNNY   88  45  22 E10       29.99S

$$

REGIONAL REPORTS     COLORADO/ARIZONA

CITY           SKY/WX    TMP DP  RH WIND       PRES   REMARKS
CRAIG, CO      CLOUDY    61  42  49 CALM      30.25R
GRAND JUNCTION PTCLDY    78  42  27 E13       30.12R
RIFLE          MOCLDY    70  46  42 CALM      30.20S
MONTROSE       CLOUDY    71  43  36 SE7       30.24S
CORTEZ         CLOUDY    67  47  48 NE7       30.25S
PAGE, AZ       CLOUDY    84  45  25 SW5       30.07S
GRAND CANYON   CLOUDY    72  43  35 NE5       30.30F
KINGMAN        PTCLDY    79  51  37 SE8       30.03R
FLAGSTAFF      LGT RAIN  57  57 100 CALM      30.35R

$$

REGIONAL REPORTS    NEVADA/IDAHO/WYOMING

CITY           SKY/WX    TMP DP  RH WIND       PRES   REMARKS
LAS VEGAS, NV  PTCLDY    94  45  18 S10       29.81F HX  90
ELY            CLEAR     56  22  26 S8        30.21R
ELKO           CLEAR     53  30  41 CALM      30.12S
POCATELLO, ID  CLEAR     59  32  36 W3        30.08S
BURLEY         CLEAR     57  40  52 W3        30.02F
EVANSTON, WY   CLOUDY    66  33  29 SE5       30.29F
ROCK SPRINGS   CLOUDY    68  30  24 CALM      30.25S
KEMMERER         N/A     52  32  46 N9        30.30F

$$




USA.gov is the U.S. government's official web portal to all federal, state and local government web resources and services.